Starlink 32003

operational
NORAD ID: 60097 Int'l Des: 2024-117 Owner: SPXS Country: US Constellation: starlink
LEOCIRCULAR

About Starlink 32003

Description loading...

Live Position

Loading 3D Globe...

Upcoming Passes

Altitude History

Altitude vs Time

uPlot chart will show altitude changes over time

Two-Line Element Set

1 60097U 24117G 25303.22591181 -.00000526 00000-0 -56311-5 0 9995
2 60097 53.1597 282.9906 0001311 86.1506 273.9645 15.30189746 76915
Epoch: Oct 30, 2025 • Age: 23 hours

Current Status

Altitude 485.5 km
Velocity 7.62 km/s
Sub-Earth Point -31.26°S, 20.83°E
Launch Date Jun 23, 2024
Age 1.3 years
Type internet

Technical Details

Classification Payload
Mass 730.00 kg
Dry Mass 700.00 kg
Total Mass 730.00 kg
Length 0.30 m
Diameter 4.10 m
Span 29.00 m
Shape Box + pan
Manufacturer SPXS
Bus Type Starlink V2M
Phase Status In Orbit
Owner/State SPXS/US

Large Constellations

Loading constellations...